Home > Weather > Spiez > Past weeks

Flag for Switzerland Past Weather in Spiez, Bern, Switzerland — Yesterday and Last 2 Weeks

Now
66 °F

Mild.


Feels Like: 66 °F
Forecast: 47 / 76 °F
Wind: 10 mph from Northwest

Location: Interlaken

Current Time: May 25, 2016 at 5:02:21 PM

Latest Report: May 25, 2016 at 4:00 PM


Visibility: N/A

Pressure: 29.87 "Hg (27.82 "Hg at 607m altitude)

Humidity: 59%

Dew Point: 51 °F

Location of SpiezLocation

Past Weather in Spiez — Graph

°F

Spiez Temperature Yesterday

Maximum temperature yesterday: 58 °F (at 4:00 PM)
Minimum temperature yesterday: 42 °F (at 4:00 AM)
Average temperature yesterday: 50 °F

High & Low Weather Summary for the Past Weeks

 TemperatureHumidityPressure
High78 °F (May 22, 3:00 PM)100% (May 12, 1:00 AM)30.24 "Hg (May 12, 1:00 AM)
Low39 °F (May 16, 6:00 AM)36% (May 22, 2:00 PM)29.47 "Hg (May 11, 7:00 PM)
Average53 °F84%29.92 "Hg
* Reported May 10 4:00 PM — May 25 4:00 PM, Spiez, Weather by CustomWeather, © 2016

Note: Actual official high and low records may vary slightly from our data, if they occured in-between our weather recording intervals... More about our weather records

Advertising

Spiez Weather History for the Previous 24 Hours

Scroll right to see more
 ConditionsComfort  
Time TempWeatherWind HumidityBarometerVisibility
4:00 PM
Wed, May 25
66 °FMild.10 mph59%29.87 "HgN/A
3:00 PM66 °FMild.10 mph57%29.87 "HgN/A
2:00 PM63 °FMild.9 mph60%29.88 "HgN/A
1:00 PM60 °FRefreshingly cool.10 mph58%29.90 "HgN/A
12:00 PM59 °FCool.6 mph71%29.92 "HgN/A
11:00 AM58 °FCool.3 mph76%29.93 "HgN/A
9:00 AM52 °FCool.No wind93%29.96 "HgN/A
8:00 AM48 °FCool.2 mph100%29.98 "HgN/A
7:00 AM44 °FQuite cool.1 mph100%29.98 "HgN/A
6:00 AM43 °FQuite cool.1 mph100%29.99 "HgN/A
5:00 AM44 °FQuite cool.3 mph100%29.98 "HgN/A
4:40 AM44 °FQuite cool.No wind100%29.97 "HgN/A
4:00 AM45 °FQuite cool.1 mph100%29.97 "HgN/A
3:00 AM46 °FCool.6 mph100%29.96 "HgN/A
2:00 AM47 °FCool.3 mph100%29.96 "HgN/A
1:00 AM48 °FCool.7 mph100%29.96 "HgN/A
12:00 AM51 °FCool.6 mph100%29.95 "HgN/A
11:00 PM
Tue, May 24
53 °FCool.2 mph100%29.95 "HgN/A
10:00 PM53 °FCool.2 mph100%29.95 "HgN/A
9:00 PM54 °FCool.2 mph91%29.93 "HgN/A
8:00 PM56 °FCool.2 mph67%29.92 "HgN/A
7:00 PM56 °FCool.6 mph68%29.91 "HgN/A
6:00 PM58 °FCool.5 mph66%29.92 "HgN/A
5:00 PM57 °FCool.8 mph71%29.93 "HgN/A
Weather by CustomWeather, © 2016

See weather overviewHow to use our weather pages